Weather in Pesochnoe

Russia / Samara Oblast     52°55′44″N   49°25′38″E
temp.,
°C
wind,
m/s
gust,
m/s
humid.,
%
clouds,
%
prec.,
mm/h
press.,
hPa
HPBL,
m
27 february, sat
sat2701:00−6sse61395100 3.8 1001430
04:000wsw3899100 5.1 1000275
07:00+1wsw61291100 0.1 999438
10:00+1wsw71293100 0.1 999497
13:00+1wsw61110098 0.0 998481
16:00+1wsw5119894 0.1 998503
19:000wsw599899 0.3 997443
22:000w4798100 1.0 999244
28 february, sun
sun2801:00−9nnw6129297 0.3 1000415
04:00−11nw6129198 0.4 1002492
07:00−13nw61291100 0.1 1005484
10:00−14nw61091100 0.1 1007452
13:00−13nnw6990100 0.0 1009505
16:00−12nnw5989100 0.0 1011534
19:00−16nnw499155 0.0 1013226
22:00−18nw349328 0.0 101566
1 march, mon
mon101:00−19nw349647 0.0 101756
04:00−20nw349754 0.0 101963
07:00−21nw349622 0.0 102082
10:00−19nw469413 0.0 1022240
13:00−16nw469140 0.0 1023326
16:00−15nw469139 0.0 1023307
19:00−18nnw33920 0.0 102430
22:00−20wnw12940 0.0 102420
2 march, tue
tue201:00−20wsw229921 0.0 102320
04:00−19sw339729 0.0 102135
07:00−18ssw469665 0.0 101899
10:00−13ssw599382 0.0 1015326
13:00−8sw71294100 0.7 1011532
16:00−4ssw81495100 2.3 1007673
19:00−2sw71396100 1.4 1004636
22:00−2sw61296100 2.6 1003537
3 march, wed
wed301:00−2wsw4897100 0.6 1001236
04:00−6w469499 0.7 1001100
07:00−4wnw489774 0.3 1001188
10:00−3nw5119087 0.6 1003639
13:00−2nnw61187100 0.0 1004881
16:00−1nnw6986100 0.1 1006932
19:00−5nw478995 0.1 1007126
22:00−5wnw5109296 0.1 1009281